date_time,T_room,P_room,CO2_raw,corr_int,corr_slope,temp,CO2_scaled,flow_rate,dTdt,fraction,ug_frac,ug_sum
11:13:25 AM,29.612,101.766,3.6,0,1.001075,150.149708,3.6,36.5,3.75878,1,1.316094,1.316094
11:13:26 AM,29.612,101.765,2.9,0,1.001075,150.246555,2.9,36.5,3.693366,1,1.317096,1.317096
11:13:27 AM,29.612,101.765,3.1,0,1.001075,150.222336,3.1,36.5,3.722973,1,1.317934,1.317934
11:13:28 AM,29.612,101.765,3.1,0,1.001075,150.27358,3.1,36.5,3.694572,1,1.318835,1.318835
11:13:29 AM,29.612,101.766,3.4,0,1.001075,150.342007,3.4,36.5,3.734375,1,1.319815,1.319815
11:13:30 AM,29.612,101.765,3.2,0,1.001075,150.495018,3.2,36.5,3.660421,1,1.320746,1.320746
11:13:31 AM,29.611,101.765,3.4,0,1.001075,150.491513,3.4,36.5,3.746833,1,1.321721,1.321721
11:13:32 AM,29.611,101.765,3.4,0,1.001075,150.591879,3.4,36.5,3.694678,1,1.322699,1.322699
11:13:33 AM,29.611,101.765,3.3,0,1.001075,150.709467,3.3,36.5,3.710884,1,1.323738,1.323738
11:13:34 AM,29.611,101.765,3.2,0,1.001075,150.755082,3.2,36.5,3.732561,1,1.324719,1.324719
11:13:35 AM,29.611,101.765,3.7,0,1.001075,150.850554,3.7,36.5,3.81082,1,1.325766,1.325766
11:13:36 AM,29.611,101.765,3.4,0,1.001075,150.928474,3.4,36.5,3.824362,1,1.326857,1.326857
11:13:37 AM,29.611,101.765,2.8,0,1.001075,150.957975,2.8,36.5,3.885871,1,1.327743,1.327743
11:13:38 AM,29.611,101.765,3.3,0,1.001075,150.983939,3.3,36.5,3.963983,1,1.328682,1.328682
11:13:39 AM,29.611,101.765,3,0,1.001075,151.094169,3,36.5,4.043312,1,1.329637,1.329637
11:13:40 AM,29.611,101.765,3.5,0,1.001075,151.210712,3.5,36.5,4.038669,1,1.330599,1.330599
11:13:41 AM,29.611,101.765,3.3,0,1.001075,151.247926,3.3,36.5,4.057772,1,1.331592,1.331592
11:13:42 AM,29.611,101.765,3.5,0,1.001075,151.345519,3.5,36.5,4.127495,1,1.332604,1.332604
11:13:43 AM,29.611,101.765,3.5,0,1.001075,151.391512,3.5,36.5,4.083747,1,1.333612,1.333612
11:13:44 AM,29.611,101.765,3.4,0,1.001075,151.530534,3.4,36.5,4.261752,1,1.334618,1.334618
11:13:45 AM,29.61,101.765,3.6,0,1.001075,151.524225,3.6,36.5,4.351268,1,1.335648,1.335648
11:13:46 AM,29.611,101.765,3.4,0,1.001075,151.613751,3.4,36.5,4.390062,1,1.336704,1.336704
11:13:47 AM,29.61,101.765,3.5,0,1.001075,151.671334,3.5,36.5,4.362137,1,1.337714,1.337714
11:13:48 AM,29.61,101.765,3.3,0,1.001075,151.743672,3.3,36.5,4.402773,1,1.338711,1.338711
11:13:49 AM,29.61,101.765,3.8,0,1.001075,151.804763,3.8,36.5,4.332174,1,1.339769,1.339769
11:13:50 AM,29.61,101.765,2.9,0,1.001075,151.873933,2.9,36.5,4.321431,1,1.340767,1.340767
11:13:51 AM,29.61,101.765,2.8,0,1.001075,151.866222,2.8,36.5,4.406694,1,1.341611,1.341611
11:13:52 AM,29.61,101.765,2.6,0,1.001075,151.9828,2.6,36.5,4.252493,1,1.342416,1.342416
11:13:53 AM,29.61,101.765,3,0,1.001075,152.085331,3,36.5,4.202708,1,1.34321,1.34321
11:13:54 AM,29.61,101.765,3,0,1.001075,152.11835,3,36.5,4.15182,1,1.344118,1.344118
11:13:55 AM,29.61,101.765,3.4,0,1.001075,152.270765,3.4,36.5,4.142588,1,1.345111,1.345111
11:13:56 AM,29.61,101.765,3.8,0,1.001075,152.29464,3.8,36.5,4.175008,1,1.346171,1.346171
11:13:57 AM,29.61,101.765,3.9,0,1.001075,152.429504,3.9,36.5,4.307793,1,1.347325,1.347325
11:13:58 AM,29.61,101.765,3.3,0,1.001075,152.456917,3.3,36.5,4.359279,1,1.348366,1.348366
11:13:59 AM,29.61,101.765,3.4,0,1.001075,152.554893,3.4,36.5,4.385389,1,1.349357,1.349357
11:14:00 AM,29.61,101.765,3.3,0,1.001075,152.656406,3.3,36.5,4.325047,1,1.350293,1.350293
11:14:01 AM,29.61,101.765,3.3,0,1.001075,152.698917,3.3,36.5,4.383116,1,1.351265,1.351265
11:14:02 AM,29.61,101.765,3.8,0,1.001075,152.801476,3.8,36.5,4.411564,1,1.352356,1.352356
11:14:03 AM,29.61,101.765,3.4,0,1.001075,152.816939,3.4,36.5,4.385257,1,1.353449,1.353449
11:14:04 AM,29.61,101.765,3.4,0,1.001075,153.024203,3.4,36.5,4.511295,1,1.354445,1.354445
11:14:05 AM,29.609,101.765,3.7,0,1.001075,153.067057,3.7,36.5,4.520355,1,1.355463,1.355463
11:14:06 AM,29.609,101.765,3.5,0,1.001075,153.154529,3.5,36.5,4.488373,1,1.356508,1.356508
11:14:07 AM,29.609,101.765,3.2,0,1.001075,153.182286,3.2,36.5,4.491538,1,1.357532,1.357532
11:14:08 AM,29.609,101.765,3.2,0,1.001075,153.465809,3.2,36.5,4.557235,1,1.358496,1.358496
11:14:09 AM,29.609,101.765,3.2,0,1.001075,153.522395,3.2,36.5,4.683027,1,1.359471,1.359471
11:14:10 AM,29.609,101.765,3.8,0,1.001075,153.575809,3.8,36.5,4.77684,1,1.360586,1.360586
11:14:11 AM,29.609,101.765,3.9,0,1.001075,153.718122,3.9,36.5,4.796292,1,1.361692,1.361692
11:14:12 AM,29.609,101.765,4.1,0,1.001075,153.846378,4.1,36.5,4.943955,1,1.362895,1.362895
11:14:13 AM,29.609,101.765,4,0,1.001075,153.920179,4,36.5,4.898126,1,1.364101,1.364101
11:14:14 AM,29.609,101.765,4.3,0,1.001075,154.069528,4.3,36.5,5.126766,1,1.365358,1.365358
11:14:15 AM,29.609,101.765,4.3,0,1.001075,154.094487,4.3,36.5,5.247432,1,1.366566,1.366566
11:14:16 AM,29.609,101.765,4.2,0,1.001075,154.248422,4.2,36.5,5.371003,1,1.367852,1.367852
11:14:17 AM,29.609,101.765,4.6,0,1.001075,154.316955,4.6,36.5,5.418769,1,1.369215,1.369215
11:14:18 AM,29.609,101.765,3.9,0,1.001075,154.390069,3.9,36.5,5.577317,1,1.370483,1.370483
11:14:19 AM,29.609,101.765,3.8,0,1.001075,154.517654,3.8,36.5,5.576733,1,1.371596,1.371596
11:14:20 AM,29.609,101.765,3.7,0,1.001075,154.563702,3.7,36.5,5.617169,1,1.372739,1.372739
11:14:21 AM,29.609,101.765,3.5,0,1.001075,154.598858,3.5,36.5,5.709648,1,1.373839,1.373839
11:14:22 AM,29.609,101.765,3.9,0,1.001075,154.674787,3.9,36.5,5.609419,1,1.374951,1.374951
11:14:23 AM,29.608,101.765,3.9,0,1.001075,154.752822,3.9,36.5,5.604827,1,1.376103,1.376103
11:14:24 AM,29.608,101.765,3.9,0,1.001075,154.894129,3.9,36.5,5.580882,1,1.377229,1.377229
11:14:25 AM,29.608,101.765,3.9,0,1.001075,154.842121,3.9,36.5,5.483325,1,1.378366,1.378366
11:14:26 AM,29.608,101.765,3.5,0,1.001075,154.982731,3.5,36.5,5.495064,1,1.379426,1.379426
11:14:27 AM,29.608,101.765,3.4,0,1.001075,155.051986,3.4,36.5,5.537327,1,1.380476,1.380476
11:14:28 AM,29.608,101.765,2.8,0,1.001075,155.173282,2.8,36.5,5.537005,1,1.381418,1.381418
11:14:29 AM,29.608,101.765,2.9,0,1.001075,155.211956,2.9,36.5,5.458243,1,1.382221,1.382221
11:14:30 AM,29.608,101.765,3.1,0,1.001075,155.336772,3.1,36.5,5.401068,1,1.383126,1.383126
11:14:31 AM,29.608,101.765,3,0,1.001075,155.285093,3,36.5,5.304004,1,1.384014,1.384014
11:14:32 AM,29.608,101.765,3.3,0,1.001075,155.462295,3.3,36.5,5.32421,1,1.38499,1.38499
11:14:33 AM,29.608,101.764,3.5,0,1.001075,155.546335,3.5,36.5,5.191737,1,1.385976,1.385976
11:14:34 AM,29.608,101.764,3.3,0,1.001075,155.624397,3.3,36.5,5.21723,1,1.386988,1.386988
11:14:35 AM,29.608,101.765,3.3,0,1.001075,155.709145,3.3,36.5,5.216108,1,1.387963,1.387963
11:14:36 AM,29.608,101.765,3.8,0,1.001075,155.884267,3.8,36.5,5.137134,1,1.389009,1.389009
11:14:37 AM,29.608,101.765,3.5,0,1.001075,155.920141,3.5,36.5,5.077096,1,1.390038,1.390038
11:14:38 AM,29.608,101.764,3.8,0,1.001075,155.975709,3.8,36.5,5.069391,1,1.39114,1.39114
11:14:39 AM,29.607,101.765,3.5,0,1.001075,156.053079,3.5,36.5,4.990145,1,1.392176,1.392176
11:14:40 AM,29.607,101.765,3.5,0,1.001075,156.161046,3.5,36.5,4.958837,1,1.393191,1.393191
11:14:41 AM,29.607,101.764,3.4,0,1.001075,156.29259,3.4,36.5,4.918971,1,1.394227,1.394227
11:14:42 AM,29.607,101.764,3.1,0,1.001075,156.3471,3.1,36.5,4.973763,1,1.395225,1.395225
11:14:43 AM,29.607,101.764,3.1,0,1.001075,156.426248,3.1,36.5,4.920854,1,1.396148,1.396148
11:14:44 AM,29.607,101.764,3,0,1.001075,156.594024,3,36.5,5.046438,1,1.397029,1.397029
11:14:45 AM,29.607,101.764,3.1,0,1.001075,156.650307,3.1,36.5,5.066255,1,1.397984,1.397984
11:14:46 AM,29.607,101.764,3.1,0,1.001075,156.779064,3.1,36.5,5.138066,1,1.39891,1.39891
11:14:47 AM,29.607,101.764,3.4,0,1.001075,156.806152,3.4,36.5,5.120047,1,1.399861,1.399861
11:14:48 AM,29.607,101.764,3.4,0,1.001075,156.90465,3.4,36.5,5.185448,1,1.400902,1.400902
11:14:49 AM,29.607,101.764,3.3,0,1.001075,157.047132,3.3,36.5,5.255665,1,1.401901,1.401901
11:14:50 AM,29.607,101.764,3.5,0,1.001075,157.093221,3.5,36.5,5.335713,1,1.402839,1.402839
11:14:51 AM,29.607,101.764,3.4,0,1.001075,157.227254,3.4,36.5,5.380256,1,1.403864,1.403864
11:14:52 AM,29.607,101.764,3.1,0,1.001075,157.267724,3.1,36.5,5.415967,1,1.404777,1.404777
11:14:53 AM,29.607,101.764,3,0,1.001075,157.337738,3,36.5,5.411508,1,1.405662,1.405662
11:14:54 AM,29.607,101.764,3,0,1.001075,157.383831,3,36.5,5.409461,1,1.40654,1.40654
11:14:55 AM,29.607,101.764,3.2,0,1.001075,157.429926,3.2,36.5,5.32659,1,1.407441,1.407441
11:14:56 AM,29.606,101.764,3.1,0,1.001075,157.533365,3.1,36.5,5.3271,1,1.40834,1.40834
11:14:57 AM,29.606,101.764,3.3,0,1.001075,157.527741,3.3,36.5,5.295728,1,1.409297,1.409297
11:14:58 AM,29.606,101.764,3.3,0,1.001075,157.673065,3.3,36.5,5.205822,1,1.41029,1.41029
11:14:59 AM,29.606,101.764,3.2,0,1.001075,157.651253,3.2,36.5,5.036567,1,1.411267,1.411267
11:15:00 AM,29.606,101.764,3.9,0,1.001075,157.743451,3.9,36.5,5.015528,1,1.412369,1.412369
11:15:01 AM,29.606,101.764,4,0,1.001075,157.801865,4,36.5,4.843531,1,1.413534,1.413534
11:15:02 AM,29.606,101.764,4,0,1.001075,158.011944,4,36.5,4.82466,1,1.414737,1.414737
11:15:03 AM,29.606,101.764,4.4,0,1.001075,157.987317,4.4,36.5,4.740718,1,1.415982,1.415982
11:15:04 AM,29.606,101.764,4.2,0,1.001075,158.009835,4.2,36.5,4.67515,1,1.417215,1.417215
11:15:05 AM,29.606,101.764,4,0,1.001075,158.110846,4,36.5,4.622639,1,1.418426,1.418426
11:15:06 AM,29.606,101.764,4.1,0,1.001075,158.180876,4.1,36.5,4.567025,1,1.419621,1.419621
11:15:07 AM,29.606,101.764,4.1,0,1.001075,158.295614,4.1,36.5,4.578376,1,1.420876,1.420876
11:15:08 AM,29.606,101.764,3.6,0,1.001075,158.362135,3.6,36.5,4.517227,1,1.421993,1.421993
11:15:09 AM,29.606,101.764,3.5,0,1.001075,158.42936,3.5,36.5,4.413158,1,1.423029,1.423029
11:15:10 AM,29.606,101.764,3.5,0,1.001075,158.585637,3.5,36.5,4.407919,1,1.424088,1.424088
11:15:11 AM,29.606,101.764,3.1,0,1.001075,158.608523,3.1,36.5,4.431507,1,1.425063,1.425063
11:15:12 AM,29.606,101.764,3.7,0,1.001075,158.694763,3.7,36.5,4.452761,1,1.42603,1.42603
11:15:13 AM,29.606,101.764,3.3,0,1.001075,158.716948,3.3,36.5,4.374504,1,1.427138,1.427138
11:15:14 AM,29.606,101.764,3.4,0,1.001075,158.798607,3.4,36.5,4.396998,1,1.428137,1.428137
11:15:15 AM,29.606,101.764,3.2,0,1.001075,158.898575,3.2,36.5,4.364571,1,1.429082,1.429082
11:15:16 AM,29.606,101.764,3.5,0,1.001075,158.989042,3.5,36.5,4.324225,1,1.430096,1.430096
11:15:17 AM,29.606,101.764,4,0,1.001075,159.139017,4,36.5,4.251732,1,1.43119,1.43119
11:15:18 AM,29.605,101.764,3.9,0,1.001075,159.172116,3.9,36.5,4.276064,1,1.432333,1.432333
11:15:19 AM,29.605,101.764,3.9,0,1.001075,159.289701,3.9,36.5,4.30225,1,1.433467,1.433467
11:15:20 AM,29.605,101.764,4,0,1.001075,159.32632,4,36.5,4.429058,1,1.434654,1.434654
11:15:21 AM,29.605,101.764,4.2,0,1.001075,159.387576,4.2,36.5,4.527869,1,1.435872,1.435872
11:15:22 AM,29.605,101.764,4.5,0,1.001075,159.512565,4.5,36.5,4.63289,1,1.437115,1.437115
11:15:23 AM,29.605,101.764,4.2,0,1.001075,159.516447,4.2,36.5,4.642481,1,1.438402,1.438402
11:15:24 AM,29.605,101.764,4,0,1.001075,159.58229,4,36.5,4.572505,1,1.439631,1.439631
11:15:25 AM,29.605,101.764,3.9,0,1.001075,159.735445,3.9,36.5,4.623737,1,1.440759,1.440759
11:15:26 AM,29.605,101.764,3.7,0,1.001075,159.748835,3.7,36.5,4.651607,1,1.441845,1.441845
11:15:27 AM,29.605,101.764,3.4,0,1.001075,159.845315,3.4,36.5,4.703814,1,1.442895,1.442895
11:15:28 AM,29.605,101.764,4.4,0,1.001075,159.92419,4.4,36.5,4.783457,1,1.444003,1.444003
11:15:29 AM,29.605,101.764,4.3,0,1.001075,159.897778,4.3,36.5,4.712334,1,1.445308,1.445308
11:15:30 AM,29.605,101.764,4,0,1.001075,159.988635,4,36.5,4.679055,1,1.446539,1.446539
11:15:31 AM,29.604,101.764,4.4,0,1.001075,160.076318,4.4,36.5,4.566194,1,1.447747,1.447747
11:15:32 AM,29.604,101.764,4.3,0,1.001075,160.175283,4.3,36.5,4.583694,1,1.449034,1.449034
11:15:33 AM,29.604,101.764,4.3,0,1.001075,160.308043,4.3,36.5,4.598295,1,1.450274,1.450274
11:15:34 AM,29.604,101.764,4.2,0,1.001075,160.263311,4.2,36.5,4.521469,1,1.451535,1.451535
11:15:35 AM,29.604,101.764,4.2,0,1.001075,160.374606,4.2,36.5,4.455081,1,1.452802,1.452802
11:15:36 AM,29.604,101.764,3.9,0,1.001075,160.467588,3.9,36.5,4.413657,1,1.45397,1.45397
11:15:37 AM,29.604,101.764,3.8,0,1.001075,160.558097,3.8,36.5,4.448821,1,1.455128,1.455128
11:15:38 AM,29.604,101.764,3.5,0,1.001075,160.678208,3.5,36.5,4.381834,1,1.456186,1.456186
11:15:39 AM,29.604,101.764,3.4,0,1.001075,160.71484,3.4,36.5,4.372856,1,1.457221,1.457221
11:15:40 AM,29.604,101.764,3.9,0,1.001075,160.766613,3.9,36.5,4.408403,1,1.458246,1.458246
11:15:41 AM,29.604,101.764,3.7,0,1.001075,160.898352,3.7,36.5,4.411704,1,1.459357,1.459357
11:15:42 AM,29.604,101.764,3.7,0,1.001075,161.01988,3.7,36.5,4.48421,1,1.460513,1.460513
11:15:43 AM,29.604,101.764,4.3,0,1.001075,161.073769,4.3,36.5,4.461457,1,1.46175,1.46175
11:15:44 AM,29.604,101.764,4.1,0,1.001075,161.196008,4.1,36.5,4.56241,1,1.462983,1.462983
11:15:45 AM,29.604,101.764,4.5,0,1.001075,161.283722,4.5,36.5,4.595573,1,1.464231,1.464231
11:15:46 AM,29.604,101.764,4.2,0,1.001075,161.364743,4.2,36.5,4.561002,1,1.465514,1.465514
11:15:47 AM,29.604,101.764,4.5,0,1.001075,161.497911,4.5,36.5,4.568845,1,1.466827,1.466827
11:15:48 AM,29.604,101.764,4.4,0,1.001075,161.599733,4.4,36.5,4.679841,1,1.468147,1.468147
11:15:49 AM,29.604,101.764,4.4,0,1.001075,161.679354,4.4,36.5,4.74306,1,1.469373,1.469373
11:15:50 AM,29.604,101.764,4.5,0,1.001075,161.843889,4.5,36.5,4.855451,1,1.470645,1.470645
11:15:51 AM,29.604,101.764,4.7,0,1.001075,161.898858,4.7,36.5,5.042247,1,1.471967,1.471967
11:15:52 AM,29.604,101.764,4.2,0,1.001075,161.962635,4.2,36.5,5.130074,1,1.473279,1.473279
11:15:53 AM,29.604,101.764,4.6,0,1.001075,162.064471,4.6,36.5,5.211556,1,1.474609,1.474609
11:15:54 AM,29.604,101.764,4.4,0,1.001075,162.201186,4.4,36.5,5.248627,1,1.475897,1.475897
11:15:55 AM,29.603,101.764,4.1,0,1.001075,162.272372,4.1,36.5,5.36559,1,1.477118,1.477118
11:15:56 AM,29.603,101.764,4,0,1.001075,162.402397,4,36.5,5.481288,1,1.478312,1.478312
11:15:57 AM,29.603,101.764,4,0,1.001075,162.49684,4,36.5,5.575159,1,1.479475,1.479475
11:15:58 AM,29.603,101.764,4.8,0,1.001075,162.629349,4.8,36.5,5.68943,1,1.48076,1.48076
11:15:59 AM,29.603,101.764,4.3,0,1.001075,162.654716,4.3,36.5,5.792605,1,1.482121,1.482121
11:16:00 AM,29.603,101.764,4.7,0,1.001075,162.708288,4.7,36.5,5.772093,1,1.483432,1.483432
11:16:01 AM,29.603,101.764,4.5,0,1.001075,162.834807,4.5,36.5,5.743171,1,1.484772,1.484772
11:16:02 AM,29.603,101.764,4.4,0,1.001075,162.959219,4.4,36.5,5.794178,1,1.486062,1.486062
11:16:03 AM,29.603,101.764,4.6,0,1.001075,163.016317,4.6,36.5,5.841539,1,1.487403,1.487403
11:16:04 AM,29.603,101.764,5.1,0,1.001075,163.085044,5.1,36.5,5.752358,1,1.488837,1.488837
11:16:05 AM,29.603,101.764,5.3,0,1.001075,163.125926,5.3,36.5,5.686703,1,1.490358,1.490358
11:16:06 AM,29.603,101.764,5.4,0,1.001075,163.302862,5.4,36.5,5.693546,1,1.491985,1.491985
11:16:07 AM,29.603,101.764,5.5,0,1.001075,163.318376,5.5,36.5,5.692097,1,1.493589,1.493589
11:16:08 AM,29.603,101.764,5.3,0,1.001075,163.431173,5.3,36.5,5.617232,1,1.495184,1.495184
11:16:09 AM,29.603,101.764,5.3,0,1.001075,163.497092,5.3,36.5,5.552004,1,1.496724,1.496724
11:16:10 AM,29.603,101.764,4.9,0,1.001075,163.554903,4.9,36.5,5.541805,1,1.498234,1.498234
11:16:11 AM,29.603,101.764,4.6,0,1.001075,163.650783,4.6,36.5,5.442612,1,1.499669,1.499669
11:16:12 AM,29.603,101.764,4.5,0,1.001075,163.691331,4.5,36.5,5.362682,1,1.500989,1.500989
11:16:13 AM,29.603,101.764,4.7,0,1.001075,163.781924,4.7,36.5,5.340239,1,1.50234,1.50234
11:16:14 AM,29.602,101.764,4.3,0,1.001075,163.861591,4.3,36.5,5.343462,1,1.50364,1.50364
11:16:15 AM,29.602,101.764,4.8,0,1.001075,163.980745,4.8,36.5,5.295587,1,1.504986,1.504986
11:16:16 AM,29.602,101.764,5.1,0,1.001075,164.037153,5.1,36.5,5.250784,1,1.506394,1.506394
11:16:17 AM,29.602,101.765,4.6,0,1.001075,164.243051,4.6,36.5,5.213344,1,1.507866,1.507866
11:16:18 AM,29.602,101.765,4.3,0,1.001075,164.240234,4.3,36.5,5.196899,1,1.509164,1.509164
11:16:19 AM,29.602,101.764,4.3,0,1.001075,164.335772,4.3,36.5,5.203541,1,1.510463,1.510463
11:16:20 AM,29.602,101.765,4,0,1.001075,164.415814,4,36.5,5.047967,1,1.511724,1.511724
11:16:21 AM,29.602,101.765,3.6,0,1.001075,164.543095,3.6,36.5,5.062228,1,1.512869,1.512869
11:16:22 AM,29.602,101.765,3.9,0,1.001075,164.6799,3.9,36.5,5.045014,1,1.513945,1.513945
11:16:23 AM,29.602,101.765,4.2,0,1.001075,164.742318,4.2,36.5,5.116048,1,1.515125,1.515125
11:16:24 AM,29.602,101.765,4.2,0,1.001075,164.847388,4.2,36.5,5.171654,1,1.51634,1.51634
11:16:25 AM,29.602,101.765,4.7,0,1.001075,164.891126,4.7,36.5,5.214018,1,1.517686,1.517686
11:16:26 AM,29.602,101.765,4,0,1.001075,165.010311,4,36.5,5.256501,1,1.519006,1.519006
11:16:27 AM,29.602,101.765,4,0,1.001075,165.083662,4,36.5,5.317431,1,1.520143,1.520143
11:16:28 AM,29.602,101.765,4.4,0,1.001075,165.207786,4.4,36.5,5.245306,1,1.521391,1.521391
11:16:29 AM,29.602,101.765,4.8,0,1.001075,165.384473,4.8,36.5,5.333978,1,1.522713,1.522713
11:16:30 AM,29.602,101.765,4.8,0,1.001075,165.433494,4.8,36.5,5.33329,1,1.524135,1.524135
11:16:31 AM,29.602,101.765,4.8,0,1.001075,165.45924,4.8,36.5,5.324298,1,1.525545,1.525545
11:16:32 AM,29.602,101.765,5.2,0,1.001075,165.559397,5.2,36.5,5.336041,1,1.527015,1.527015
11:16:33 AM,29.602,101.765,5.2,0,1.001075,165.702941,5.2,36.5,5.373225,1,1.528591,1.528591
11:16:34 AM,29.602,101.765,5,0,1.001075,165.768192,5,36.5,5.302613,1,1.530065,1.530065
11:16:35 AM,29.602,101.765,5.4,0,1.001075,165.793238,5.4,36.5,5.293881,1,1.531641,1.531641
11:16:36 AM,29.602,101.765,5.3,0,1.001075,165.995683,5.3,36.5,5.279329,1,1.533183,1.533183
11:16:37 AM,29.602,101.765,5.3,0,1.001075,166.032368,5.3,36.5,5.276662,1,1.534756,1.534756
11:16:38 AM,29.602,101.765,5.2,0,1.001075,166.105033,5.2,36.5,5.285796,1,1.536301,1.536301
11:16:39 AM,29.602,101.765,5.7,0,1.001075,166.153356,5.7,36.5,5.239116,1,1.537909,1.537909
11:16:40 AM,29.602,101.765,5.5,0,1.001075,166.236253,5.5,36.5,5.335795,1,1.539552,1.539552
11:16:41 AM,29.602,101.765,5.4,0,1.001075,166.273282,5.4,36.5,5.360836,1,1.54116,1.54116
11:16:42 AM,29.602,101.765,5.1,0,1.001075,166.424261,5.1,36.5,5.347662,1,1.542728,1.542728
11:16:43 AM,29.602,101.765,5.1,0,1.001075,166.526211,5.1,36.5,5.382539,1,1.544216,1.544216
11:16:44 AM,29.601,101.765,4.5,0,1.001075,166.54349,4.5,36.5,5.388684,1,1.545634,1.545634
11:16:45 AM,29.601,101.765,4.8,0,1.001075,166.584064,4.8,36.5,5.372524,1,1.547039,1.547039
11:16:46 AM,29.601,101.765,4.9,0,1.001075,166.678608,4.9,36.5,5.327456,1,1.54844,1.54844
11:16:47 AM,29.601,101.765,5.4,0,1.001075,166.761153,5.4,36.5,5.282671,1,1.550018,1.550018
11:16:48 AM,29.601,101.765,5.1,0,1.001075,166.810894,5.1,36.5,5.224205,1,1.551567,1.551567
11:16:49 AM,29.601,101.765,5.4,0,1.001075,166.899098,5.4,36.5,5.193177,1,1.553068,1.553068
11:16:50 AM,29.601,101.765,5.7,0,1.001075,166.981647,5.7,36.5,5.084034,1,1.554724,1.554724
11:16:51 AM,29.601,101.765,5.5,0,1.001075,167.015519,5.5,36.5,4.991225,1,1.556393,1.556393
11:16:52 AM,29.601,101.765,5,0,1.001075,167.164752,5,36.5,4.97079,1,1.55792,1.55792
11:16:53 AM,29.601,101.765,4.4,0,1.001075,167.194036,4.4,36.5,4.945667,1,1.559312,1.559312
11:16:54 AM,29.601,101.765,4.8,0,1.001075,167.340454,4.8,36.5,4.936193,1,1.560645,1.560645
11:16:55 AM,29.601,101.765,4.7,0,1.001075,167.312236,4.7,36.5,4.892698,1,1.562109,1.562109
11:16:56 AM,29.601,101.765,4.7,0,1.001075,167.415961,4.7,36.5,4.823933,1,1.563512,1.563512
11:16:57 AM,29.601,101.765,4.8,0,1.001075,167.420552,4.8,36.5,4.720212,1,1.564921,1.564921
11:16:58 AM,29.601,101.765,4.9,0,1.001075,167.606496,4.9,36.5,4.643107,1,1.5663,1.5663
11:16:59 AM,29.601,101.765,4.9,0,1.001075,167.615318,4.9,36.5,4.601835,1,1.567755,1.567755
11:17:00 AM,29.601,101.765,5.1,0,1.001075,167.752583,5.1,36.5,4.609805,1,1.569213,1.569213
11:17:01 AM,29.601,101.765,5.5,0,1.001075,167.870076,5.5,36.5,4.533641,1,1.570816,1.570816
11:17:02 AM,29.601,101.766,5.3,0,1.001075,167.847495,5.3,36.5,4.424888,1,1.572404,1.572404
11:17:03 AM,29.601,101.765,5.4,0,1.001075,167.99041,5.4,36.5,4.480045,1,1.573964,1.573964
11:17:04 AM,29.601,101.765,5.5,0,1.001075,167.997822,5.5,36.5,4.432709,1,1.575568,1.575568
11:17:05 AM,29.601,101.765,5.2,0,1.001075,168.110746,5.2,36.5,4.479674,1,1.577169,1.577169
11:17:06 AM,29.601,101.766,4.8,0,1.001075,168.150268,4.8,36.5,4.335906,1,1.578605,1.578605
11:17:07 AM,29.601,101.765,4.9,0,1.001075,168.346474,4.9,36.5,4.374666,1,1.58004,1.58004
11:17:08 AM,29.601,101.765,4.7,0,1.001075,168.399413,4.7,36.5,4.35892,1,1.581469,1.581469
11:17:09 AM,29.601,101.765,4.7,0,1.001075,168.445992,4.7,36.5,4.336023,1,1.582824,1.582824
11:17:10 AM,29.601,101.765,4.3,0,1.001075,168.536342,4.3,36.5,4.40696,1,1.584116,1.584116
11:17:11 AM,29.601,101.766,4.5,0,1.001075,168.529634,4.5,36.5,4.401897,1,1.58542,1.58542
11:17:12 AM,29.601,101.765,4.7,0,1.001075,168.648212,4.7,36.5,4.393599,1,1.586837,1.586837
11:17:13 AM,29.601,101.765,4.9,0,1.001075,168.6881,4.9,36.5,4.470583,1,1.588215,1.588215
11:17:14 AM,29.601,101.766,4.7,0,1.001075,168.869501,4.7,36.5,4.574074,1,1.589633,1.589633
11:17:15 AM,29.601,101.765,4.4,0,1.001075,168.893152,4.4,36.5,4.60455,1,1.590986,1.590986
11:17:16 AM,29.601,101.765,4.4,0,1.001075,168.928448,4.4,36.5,4.609299,1,1.592293,1.592293
11:17:17 AM,29.601,101.765,4.2,0,1.001075,168.999388,4.2,36.5,4.579724,1,1.593523,1.593523
11:17:18 AM,29.601,101.766,4.6,0,1.001075,169.063275,4.6,36.5,4.518289,1,1.594833,1.594833
11:17:19 AM,29.601,101.765,4.5,0,1.001075,169.161396,4.5,36.5,4.544493,1,1.59615,1.59615
11:17:20 AM,29.601,101.765,4.5,0,1.001075,169.211868,4.5,36.5,4.580987,1,1.597501,1.597501
11:17:21 AM,29.601,101.766,5.2,0,1.001075,169.29905,5.2,36.5,4.591312,1,1.598917,1.598917
11:17:22 AM,29.601,101.766,5.3,0,1.001075,169.436003,5.3,36.5,4.636933,1,1.600529,1.600529
11:17:23 AM,29.601,101.766,5.1,0,1.001075,169.491775,5.1,36.5,4.654937,1,1.602084,1.602084
11:17:24 AM,29.601,101.765,6,0,1.001075,169.57473,6,36.5,4.749499,1,1.603706,1.603706
11:17:25 AM,29.601,101.766,5.5,0,1.001075,169.645678,5.5,36.5,4.782706,1,1.605403,1.605403
11:17:26 AM,29.601,101.766,5.1,0,1.001075,169.713807,5.1,36.5,4.833537,1,1.60695,1.60695
11:17:27 AM,29.601,101.766,4.7,0,1.001075,169.777703,4.7,36.5,4.771377,1,1.608372,1.608372
11:17:28 AM,29.601,101.766,4.3,0,1.001075,169.893848,4.3,36.5,4.818034,1,1.609686,1.609686
11:17:29 AM,29.601,101.766,4.7,0,1.001075,169.973268,4.7,36.5,4.74493,1,1.611004,1.611004
11:17:30 AM,29.6,101.766,4.7,0,1.001075,170.105298,4.7,36.5,4.791288,1,1.6124,1.6124
11:17:31 AM,29.6,101.765,5.1,0,1.001075,170.23945,5.1,36.5,4.755518,1,1.613814,1.613814
11:17:32 AM,29.6,101.765,5.1,0,1.001075,170.346421,5.1,36.5,4.746644,1,1.615321,1.615321
11:17:33 AM,29.6,101.766,5.4,0,1.001075,170.363367,5.4,36.5,4.766938,1,1.616844,1.616844
11:17:34 AM,29.601,101.766,5.5,0,1.001075,170.483054,5.5,36.5,4.744017,1,1.618478,1.618478
11:17:35 AM,29.601,101.766,5.7,0,1.001075,170.527534,5.7,36.5,4.765883,1,1.620121,1.620121
11:17:36 AM,29.601,101.766,6,0,1.001075,170.650752,6,36.5,4.751447,1,1.621844,1.621844
11:17:37 AM,29.601,101.766,6.2,0,1.001075,170.734429,6.2,36.5,4.818188,1,1.623616,1.623616
11:17:38 AM,29.6,101.766,6,0,1.001075,170.894014,6,36.5,4.825612,1,1.62544,1.62544
11:17:39 AM,29.6,101.766,5.7,0,1.001075,170.897903,5.7,36.5,4.859919,1,1.627222,1.627222
11:17:40 AM,29.6,101.766,5.1,0,1.001075,171.090326,5.1,36.5,4.889701,1,1.628821,1.628821
11:17:41 AM,29.6,101.765,5.2,0,1.001075,171.088209,5.2,36.5,4.892608,1,1.630359,1.630359
11:17:42 AM,29.6,101.766,5.7,0,1.001075,171.156007,5.7,36.5,4.938962,1,1.631985,1.631985
11:17:43 AM,29.6,101.766,5.2,0,1.001075,171.237218,5.2,36.5,5.064666,1,1.633567,1.633567
11:17:44 AM,29.6,101.766,5.4,0,1.001075,171.353034,5.4,36.5,5.136133,1,1.635144,1.635144
11:17:45 AM,29.6,101.766,5.8,0,1.001075,171.459319,5.8,36.5,5.071881,1,1.636828,1.636828
11:17:46 AM,29.6,101.765,5.9,0,1.001075,171.512994,5.9,36.5,5.043858,1,1.638561,1.638561